This demonstration page uses our WeatherBlox Daily Observations layout. Learn more.

Left ArrowRight Arrow

36.19886, -115.1175

Hourly Observations for April 13, 2021

Temp ( °F °C ) Dew Point ( °F °C ) Humidity (%) Winds ( mph kmh ) Pressure ( in mb ) Visibility ( mi km ) Precip ( " mm )
12:53 am 00:53 Clear 71 21.7 20 -6.7 14 14 NNW 5 7 29.62 1003 10 16 N/A
1:53 am 01:53 Clear 68 20 21 -6.1 17 17 N N/A 29.62 1003 10 16 N/A
2:53 am 02:53 Clear 66 18.9 14 -10 13 13 E 8 13 29.60 1003 10 16 N/A
3:53 am 03:53 Clear 69 20.6 17 -8.3 14 14 SW 3 6 29.60 1003 10 16 N/A
4:53 am 04:53 Clear 67 19.4 13 -10.6 12 12 ENE 9 15 29.60 1002 10 16 N/A
5:53 am 05:53 Clear 66 18.9 16 -8.9 14 14 N N/A 29.62 1003 10 16 N/A
6:53 am 06:53 Sunny 66 18.9 14 -10 13 13 S 3 6 29.64 1004 10 16 N/A
7:53 am 07:53 Sunny 68 20 14 -10 12 12 ENE 8 13 29.65 1004 10 16 N/A
8:53 am 08:53 Sunny 72 22.2 17 -8.3 12 12 ESE 10 17 29.65 1004 10 16 N/A
9:53 am 09:53 Sunny 75 23.9 24 -4.4 15 15 ESE 9 15 29.64 1004 10 16 N/A
10:53 am 10:53 Sunny 78 25.6 23 -5 13 13 S 13 20 29.62 1003 10 16 N/A
11:53 am 11:53 Sunny 80 26.7 26 -3.3 14 14 E 10 17 29.59 1002 10 16 N/A
12:40 pm 12:40 Sunny 84 28.9 21 -6.1 10 10 S 20 31 29.43 997 10 16 N/A
12:53 pm 12:53 Sunny 83 28.3 21 -6.1 10 10 S 17 28 29.55 1001 10 16 N/A
1:53 pm 13:53 Sunny 86 30 24 -4.4 10 10 S 22 35 29.52 1000 10 16 N/A
2:53 pm 14:53 Sunny 84 28.9 23 -5 10 10 S 22 35 29.49 999 10 16 N/A
3:53 pm 15:53 Sunny 86 30 20 -6.7 9 9 SSW 28 44 29.45 997 10 16 N/A
4:53 pm 16:53 Sunny 85 29.4 16 -8.9 7 7 SSW 15 24 29.44 997 10 16 N/A
5:53 pm 17:53 Sunny 84 28.9 17 -8.3 8 8 S 22 35 29.44 997 10 16 N/A
6:53 pm 18:53 Sunny 80 26.7 18 -7.8 10 10 SSW 29 46 29.45 997 10 16 N/A
7:53 pm 19:53 Clear 77 25 21 -6.1 12 12 SSW 24 39 29.45 997 10 16 N/A
8:53 pm 20:53 Clear 74 23.3 25 -3.9 16 16 S 18 30 29.50 999 10 16 N/A
9:53 pm 21:53 Clear 73 22.8 26 -3.3 17 17 S 17 28 29.50 999 10 16 N/A
10:53 pm 22:53 Clear 70 21.1 27 -2.8 20 20 S 18 30 29.50 999 10 16 N/A
11:53 pm 23:53 Clear 68 20 26 -3.3 21 21 S 20 31 29.51 999 10 16 N/A

Powered by AerisWeather